CW4290 Weather Reports


Display with metric or nautical units.
time (UTC)temp
F
wind
direction
speed
MPH
gust
MPH
rain 1hr
in
rain 24hr
in
rain mn
in
humidity
%
barometer
mb
20190420230023 74 250 0.0 0.0 0.00 0.00 0.00 28 1012.3
20190420224536 73 259 0.0 0.0 0.00 0.00 0.00 26 1012.3
20190420223014 73 268 0.0 0.0 0.00 0.00 0.00 28 1012.3
20190420221514 74 311 0.0 0.0 0.00 0.00 0.00 25 1012.4
20190420220021 74 345 0.0 0.0 0.00 0.00 0.00 26 1012.7
20190420214521 74 247 0.0 0.0 0.00 0.00 0.00 27 1012.9
20190420213027 74 275 0.0 0.0 0.00 0.00 0.00 27 1013.1
20190420211507 74 310 0.0 0.0 0.00 0.00 0.00 28 1013.4
20190420210012 73 257 0.0 0.0 0.00 0.00 0.00 27 1013.5
20190420204516 73 217 0.0 0.0 0.00 0.00 0.00 27 1013.6
20190420203003 73 254 0.0 0.0 0.00 0.00 0.00 27 1013.9
20190420201504 73 209 0.0 0.0 0.00 0.00 0.00 27 1014.0
20190420200307 73 253 0.0 0.0 0.00 0.00 0.00 27 1014.2
20190420194657 72 254 0.0 0.0 0.00 0.00 0.00 25 1014.5
20190420193134 72 252 0.0 0.0 0.00 0.00 0.00 28 1014.5
20190420191658 71 263 0.0 0.0 0.00 0.00 0.00 28 1014.6
20190420190212 72 355 0.0 0.0 0.00 0.00 0.00 28 1014.9
20190420184712 71 271 0.0 0.0 0.00 0.00 0.00 28 1015.1
20190420183128 71 213 0.0 0.0 0.00 0.00 0.00 27 1015.4
20190420181627 69 269 0.0 0.0 0.00 0.00 0.00 27 1015.5
20190420180128 69 294 0.0 0.0 0.00 0.00 0.00 29 1015.7
20190420174657 68 168 0.0 0.0 0.00 0.00 0.00 29 1016.1
20190420173110 68 283 0.0 0.0 0.00 0.00 0.00 31 1016.2
20190420171636 68 298 0.0 0.0 0.00 0.00 0.00 33 1016.2
20190420170146 67 251 0.0 0.0 0.00 0.00 0.00 33 1016.7
20190420164543 66 254 0.0 0.0 0.00 0.00 0.00 33 1016.7
20190420163051 66 309 0.0 0.0 0.00 0.00 0.00 37 1016.8
20190420161554 65 314 0.0 0.0 0.00 0.00 0.00 36 1017.0
20190420160042 65 268 0.0 0.0 0.00 0.00 0.00 35 1016.9
20190420154608 65 271 0.0 0.0 0.00 0.00 0.00 37 1016.7
20190420153048 63 271 0.0 0.0 0.00 0.00 0.00 42 1016.7
20190420151517 62 250 0.0 0.0 0.00 0.00 0.00 47 1016.5
20190420150034 61 246 0.0 0.0 0.00 0.00 0.00 51 1016.4
20190420144503 59 255 0.0 0.0 0.00 0.00 0.00 54 1016.3
20190420143424 59 267 0.0 0.0 0.00 0.00 0.00 58 1016.1
20190420141703 57 264 0.0 0.0 0.00 0.00 0.00 61 1016.1
20190420140156 55 266 0.0 0.0 0.00 0.00 0.00 66 1015.6
20190420134736 53 267 0.0 0.0 0.00 0.00 0.00 70 1015.6
20190420133126 52 270 0.0 0.0 0.00 0.00 0.00 75 1015.3
20190420131656 49 344 0.0 0.0 0.00 0.00 0.00 84 1015.2
20190420130200 46 344 0.0 0.0 0.00 0.00 0.00 90 1015.3
20190420124631 44 344 0.0 0.0 0.00 0.00 0.00 90 1015.6
20190420123049 42 344 0.0 0.0 0.00 0.00 0.00 88 1014.9
20190420121547 42 344 0.0 0.0 0.00 0.00 0.00 88 1014.6
20190420120056 41 344 0.0 0.0 0.00 0.00 0.00 87 1014.5
20190420114536 42 311 0.0 0.0 0.00 0.00 0.00 87 1014.2
20190420113051 42 311 0.0 0.0 0.00 0.00 0.00 87 1014.0
20190420111524 42 311 0.0 0.0 0.00 0.00 0.00 87 1013.9
20190420110052 43 310 0.0 0.0 0.00 0.00 0.00 86 1014.0
20190420104538 43 310 0.0 0.0 0.00 0.00 0.00 86 1013.7
20190420103025 43 311 0.0 0.0 0.00 0.00 0.00 86 1013.7
20190420101514 43 311 0.0 0.0 0.00 0.00 0.00 85 1013.5
20190420100017 44 311 0.0 0.0 0.00 0.00 0.00 85 1013.5
20190420094515 44 311 0.0 0.0 0.00 0.00 0.00 85 1013.5
20190420093023 44 310 0.0 0.0 0.00 0.00 0.00 85 1013.5
20190420090006 45 311 0.0 0.0 0.00 0.00 0.00 84 1013.5
20190420084506 45 311 0.0 0.0 0.00 0.00 0.00 83 1013.5
20190420083004 45 311 0.0 0.0 0.00 0.00 0.00 82 1013.5
20190420081506 45 311 0.0 0.0 0.00 0.00 0.00 81 1013.3
20190420080202 46 310 0.0 0.0 0.00 0.00 0.00 81 1013.2
20190420074712 46 310 0.0 0.0 0.00 0.00 0.00 81 1013.2
20190420073217 47 310 0.0 0.0 0.00 0.00 0.00 81 1013.2
20190420071712 48 311 0.0 0.0 0.00 0.00 0.00 80 1013.3
20190420070149 48 311 0.0 0.0 0.00 0.00 0.00 80 1013.4
20190420064700 48 310 0.0 0.0 0.00 0.00 0.00 81 1013.1
20190420063150 48 310 0.0 0.0 0.00 0.00 0.00 81 1013.3
20190420061602 48 310 0.0 0.0 0.00 0.00 0.00 82 1013.3
20190420060117 47 310 0.0 0.0 0.00 0.00 0.00 82 1013.2
20190420054602 47 311 0.0 0.0 0.00 0.00 0.00 82 1013.0
20190420053110 47 311 0.0 0.0 0.00 0.00 0.00 82 1012.9
20190420051651 47 310 0.0 0.0 0.00 0.00 0.00 81 1012.9
20190420050147 48 310 0.0 0.0 0.00 0.00 0.01 80 1012.8
20190420044612 48 310 0.0 0.0 0.00 0.00 0.01 79 1012.7
20190420043246 49 310 0.0 0.0 0.00 0.00 0.01 79 1012.8
20190420041624 49 310 0.0 0.0 0.00 0.00 0.01 77 1012.5
20190420040147 50 310 0.0 0.0 0.00 0.00 0.01 75 1012.4
20190420034649 51 310 0.0 0.0 0.00 0.00 0.01 74 1012.4
20190420033113 52 310 0.0 0.0 0.00 0.00 0.01 71 1012.3
20190420031610 53 311 0.0 0.0 0.00 0.00 0.01 69 1012.1
20190420030125 53 310 0.0 0.0 0.00 0.00 0.01 66 1011.9
20190420024635 55 310 0.0 0.0 0.00 0.00 0.01 64 1011.8
20190420023113 56 310 0.0 0.0 0.00 0.00 0.01 60 1011.4
20190420021612 57 310 0.0 0.0 0.00 0.00 0.01 56 1011.3
20190420020132 58 310 0.0 0.0 0.00 0.00 0.01 54 1011.2
20190420014631 58 310 0.0 0.0 0.00 0.00 0.01 51 1010.9
20190420013139 59 311 0.0 0.0 0.00 0.00 0.01 48 1010.8
20190420011602 60 310 0.0 0.0 0.00 0.00 0.01 46 1010.5
20190420010122 61 310 0.0 0.0 0.00 0.00 0.01 44 1010.4
20190420004601 62 311 0.0 0.0 0.00 0.00 0.01 42 1010.3
20190420003144 63 278 0.0 0.0 0.00 0.00 0.01 41 1010.3
20190420001658 63 271 0.0 0.0 0.00 0.00 0.01 39 1010.2
20190420000119 65 263 0.0 0.0 0.00 0.00 0.01 38 1010.2
20190419234624 65 257 0.0 0.0 0.00 0.00 0.01 37 1010.1
20190419233204 65 240 0.0 0.0 0.00 0.00 0.01 40 1010.2
20190419231604 65 232 0.0 0.0 0.00 0.00 0.01 38 1010.1